This is the latest recevied weather packets stored in our database for station/object HS3PIK-2. If no packets are shown the sender has not sent any weather packets the latest 10 day(s).
| Time | Temp. | Humidity | Pressure | Rain* | Wind** | Luminosity | Snow |
|---|---|---|---|---|---|---|---|
| 1777621529 | 32.78° C | 60% | - | - | - | 0 W/m² | - |
| 1777621204 | 32.78° C | 60% | - | - | - | 0 W/m² | - |
| 1777620877 | 32.78° C | 59% | - | - | - | 0 W/m² | - |
| 1777620549 | 33.33° C | 57% | - | - | - | 0 W/m² | - |
| 1777620221 | 34.44° C | 67% | - | - | - | 0 W/m² | - |
| 1777619892 | 33.89° C | 68% | - | - | - | 0 W/m² | - |
| 1777619567 | 33.33° C | 68% | - | - | - | 0 W/m² | - |
| 1777619237 | 33.33° C | 68% | - | - | - | 0 W/m² | - |
| 1777618907 | 33.33° C | 72% | - | - | - | 0 W/m² | - |
| 1777618579 | 32.78° C | 71% | - | - | - | 0 W/m² | - |
| 1777618255 | 33.33° C | 72% | - | - | - | 0 W/m² | - |
| 1777617925 | 32.78° C | 71% | - | - | - | 0 W/m² | - |
| 1777617595 | 33.33° C | 69% | - | - | - | 0 W/m² | - |
| 1777617265 | 33.89° C | 67% | - | - | - | 0 W/m² | - |
| 1777616937 | 33.89° C | 67% | - | - | - | 0 W/m² | - |
| 1777616607 | 33.89° C | 67% | - | - | - | 0 W/m² | - |
| 1777616285 | 33.89° C | 66% | - | - | - | 0 W/m² | - |
| 1777615957 | 33.89° C | 68% | - | - | - | 0 W/m² | - |
| 1777615630 | 33.89° C | 67% | - | - | - | 0 W/m² | - |
| 1777615300 | 33.33° C | 68% | - | - | - | 0 W/m² | - |
| 1777614973 | 33.33° C | 69% | - | - | - | 0 W/m² | - |
| 1777614645 | 33.33° C | 68% | - | - | - | 0 W/m² | - |
| 1777614320 | 33.33° C | 66% | - | - | - | 0 W/m² | - |
| 1777613988 | 33.89° C | 68% | - | - | - | 0 W/m² | - |
| 1777613660 | 33.33° C | 71% | - | - | - | 0 W/m² | - |
* Rain since midnight (hover to see other rain measurements)
** Current wind speed in m/s (hover to see current wind gust speed)